Location: *
(45.1961°N, 1.9694°E)
Time: 06:03:55
(UTC+00:00)

Cosmos 1515 - Pass Details

Date: 25 August 2019
Orbit: 508 x 516 km, 82.5° (Epoch: 20 September)

Event Time Altitude Azimuth Distance (km) Brightness Sun altitude
Rises 19:19:50 0° 359° (N) 2,632 7.6 -7.0°
Reaches altitude 10° 19:22:06 10° 8° (N) 1,742 6.6 -7.4°
Maximum altitude 19:25:39 35° 76° (ENE) 840 4.4 -7.9°
Drops below altitude 10° 19:29:09 10° 144° (SE) 1,733 5.8 -8.5°
Enters shadow 19:29:40 - 146° (SSE) 1,931 6.1 -8.6°
